Powrót do katalogu

STARLINK-37921

AktywnyŁącznośćVLEO
NORAD 69969·PAYLOAD·🇺🇸 United States

Wystrzelony Jul 9, 2026 z Cape Canaveral Space Force Station

Loading…

Następne Przeloty (najbliższe 24 godziny)

TLE

ŚwieżeSource: CelesTrak SupGP

Epoka: Sep 15, 2026, 04:24 UTC

1 69969C 26157AC  26258.18381944  .00068515  00000+0  20230-2 0  2582
2 69969  53.1599 358.3539 0001207  89.5914 126.0227 15.34376121    19

Śledź STARLINK-37921 w czasie rzeczywistym z AllMySat

Download on the App Store